When you browse on this site, cookies collect data to enhance your experience and personalize the content and advertising you see.
Visit our Privacy Policy to learn more. By continuing to use the site, you agree to this use of cookies and data.
  • In Hungary
  • List of Countries
  • For 7 days
  • Water Temperature
  • Satellite Maps
  • Weather Map
  • News
  • Weather Widgets
  • user-avatar
    Login

    Hourly Weather Kompaneevka

    Today, 17 November, Saturday

    Time Temperature Precipitation Wind Pressure Humidity
    00:00 -2°C° 0 mm 5 mps 758 mmHg 60%
    01:00 -2°C° 0 mm 5 mps 758 mmHg 64%
    02:00 -3°C° 0 mm 4 mps 758 mmHg 68%
    03:00 -3°C° 0 mm 4 mps 758 mmHg 69%
    04:00 -4°C° 0 mm 5 mps 758 mmHg 70%
    05:00 -4°C° 0 mm 5 mps 758 mmHg 71%
    06:00 -4°C° 0 mm 5 mps 758 mmHg 73%
    07:00 -4°C° 0 mm 5 mps 758 mmHg 75%
    08:00 -2°C° 0 mm 5 mps 758 mmHg 77%
    09:00 -2°C° 0 mm 5 mps 758 mmHg 74%
    10:00 -1°C° 0 mm 5 mps 758 mmHg 72%
    11:00 -1°C° 0 mm 5 mps 758 mmHg 70%
    12:00 -1°C° 0 mm 5 mps 758 mmHg 64%
    13:00 0°C° 0 mm 4 mps 758 mmHg 59%
    14:00 0°C° 0 mm 4 mps 758 mmHg 54%
    15:00 0°C° 0 mm 4 mps 758 mmHg 52%
    16:00 +1°C° 0 mm 3 mps 758 mmHg 50%
    17:00 0°C° 0 mm 3 mps 758 mmHg 48%
    18:00 0°C° 0 mm 3 mps 757 mmHg 47%
    19:00 +1°C° 0 mm 2 mps 757 mmHg 46%
    20:00 +1°C° 0 mm 2 mps 757 mmHg 45%
    21:00 +1°C° 0 mm 2 mps 757 mmHg 46%
    22:00 -1°C° 0 mm 2 mps 757 mmHg 47%
    23:00 -1°C° 0 mm 2 mps 756 mmHg 48%

    Tomorrow, 18 November, Sunday

    Time Temperature Precipitation Wind Pressure Humidity
    00:00 -1°C° 0 mm 2 mps 756 mmHg 49%
    01:00 -1°C° 0 mm 2 mps 756 mmHg 50%
    02:00 -1°C° 0 mm 2 mps 756 mmHg 51%
    03:00 -2°C° 0 mm 2 mps 755 mmHg 52%
    04:00 -2°C° 0 mm 2 mps 755 mmHg 52%
    05:00 -2°C° 0 mm 2 mps 754 mmHg 53%
    06:00 -2°C° 0 mm 2 mps 754 mmHg 53%
    07:00 -2°C° 0 mm 2 mps 754 mmHg 52%
    08:00 -2°C° 0 mm 2 mps 753 mmHg 52%
    09:00 -1°C° 0 mm 2 mps 753 mmHg 48%
    10:00 +2°C° 0 mm 1 mps 753 mmHg 44%
    11:00 +3°C° 0 mm 1 mps 753 mmHg 40%
    12:00 +3°C° 0 mm 1 mps 753 mmHg 39%
    13:00 +3°C° 0 mm 1 mps 752 mmHg 38%
    14:00 +3°C° 0 mm 0 mps 752 mmHg 36%
    15:00 +3°C° 0 mm 1 mps 752 mmHg 40%
    16:00 +2°C° 0 mm 1 mps 751 mmHg 43%
    17:00 +1°C° 0 mm 1 mps 751 mmHg 47%
    18:00 +1°C° 0 mm 1 mps 751 mmHg 49%
    19:00 0°C° 0 mm 1 mps 751 mmHg 50%
    20:00 0°C° 0 mm 1 mps 751 mmHg 52%
    21:00 0°C° 0 mm 1 mps 751 mmHg 53%
    22:00 -1°C° 0 mm 1 mps 751 mmHg 55%
    23:00 -3°C° 0 mm 2 mps 751 mmHg 56%

    Day after tomorrow, 19 November, Monday

    Time Temperature Precipitation Wind Pressure Humidity
    00:00 -3°C° 0 mm 2 mps 750 mmHg 58%
    01:00 -3°C° 0 mm 2 mps 750 mmHg 59%
    02:00 -1°C° 0 mm 1 mps 750 mmHg 61%
    03:00 -3°C° 0 mm 2 mps 750 mmHg 61%
    04:00 -3°C° 0 mm 2 mps 750 mmHg 62%
    05:00 -3°C° 0 mm 2 mps 750 mmHg 62%
    06:00 -4°C° 0 mm 3 mps 750 mmHg 60%
    07:00 -4°C° 0 mm 3 mps 750 mmHg 57%
    08:00 -2°C° 0 mm 3 mps 750 mmHg 55%
    09:00 -2°C° 0 mm 4 mps 750 mmHg 55%
    10:00 -1°C° 0 mm 4 mps 750 mmHg 55%
    11:00 0°C° 0 mm 4 mps 750 mmHg 55%
    12:00 0°C° 0 mm 4 mps 750 mmHg 60%
    13:00 0°C° 0 mm 4 mps 750 mmHg 64%
    14:00 0°C° 0 mm 5 mps 749 mmHg 68%
    15:00 0°C° 0.1 mm 5 mps 749 mmHg 72%
    16:00 0°C° 0.1 mm 5 mps 749 mmHg 75%
    17:00 -1°C° 0.1 mm 5 mps 748 mmHg 79%
    18:00 -2°C° 0.2 mm 6 mps 748 mmHg 80%
    19:00 -1°C° 0.2 mm 6 mps 748 mmHg 81%
    20:00 -1°C° 0.2 mm 6 mps 748 mmHg 83%
    21:00 -1°C° 0.8 mm 6 mps 748 mmHg 85%
    22:00 -1°C° 0.8 mm 6 mps 747 mmHg 87%
    23:00 -1°C° 0.8 mm 6 mps 747 mmHg 88%

    20 November, Tuesday

    Time Temperature Precipitation Wind Pressure Humidity
    00:00 -2°C° 1.5 mm 6 mps 747 mmHg 90%
    01:00 -2°C° 1.5 mm 7 mps 747 mmHg 91%
    02:00 -2°C° 1.5 mm 7 mps 747 mmHg 92%
    03:00 -2°C° 0.7 mm 7 mps 747 mmHg 92%
    04:00 -2°C° 0.7 mm 7 mps 747 mmHg 92%
    05:00 -2°C° 0.7 mm 7 mps 747 mmHg 92%
    06:00 -2°C° 0.1 mm 6 mps 747 mmHg 92%
    07:00 -3°C° 0.1 mm 6 mps 748 mmHg 92%
    08:00 -3°C° 0.1 mm 6 mps 748 mmHg 91%
    09:00 -2°C° 0 mm 6 mps 749 mmHg 92%
    10:00 -1°C° 0 mm 5 mps 749 mmHg 92%
    11:00 -1°C° 0 mm 4 mps 749 mmHg 93%
    12:00 -1°C° 0 mm 4 mps 749 mmHg 93%
    13:00 -1°C° 0 mm 5 mps 750 mmHg 93%
    14:00 -1°C° 0 mm 5 mps 750 mmHg 93%
    15:00 -1°C° 0 mm 4 mps 750 mmHg 93%
    16:00 -1°C° 0 mm 4 mps 750 mmHg 93%
    17:00 -2°C° 0 mm 4 mps 750 mmHg 93%
    18:00 -1°C° 0 mm 3 mps 750 mmHg 93%
    19:00 -1°C° 0 mm 3 mps 751 mmHg 94%
    20:00 -1°C° 0 mm 3 mps 751 mmHg 94%
    21:00 -1°C° 0 mm 2 mps 751 mmHg 94%
    22:00 -1°C° 0 mm 2 mps 751 mmHg 94%
    23:00 +1°C° 0 mm 2 mps 751 mmHg 94%

    21 November, Wednesday

    Time Temperature Precipitation Wind Pressure Humidity
    00:00 -1°C° 0 mm 2 mps 750 mmHg 94%
    01:00 -2°C° 0 mm 2 mps 750 mmHg 94%
    02:00 -2°C° 0 mm 2 mps 750 mmHg 94%
    03:00 -2°C° 0 mm 2 mps 750 mmHg 95%
    04:00 -3°C° 0 mm 2 mps 750 mmHg 95%
    05:00 -4°C° 0 mm 3 mps 749 mmHg 95%
    06:00 -4°C° 0 mm 3 mps 749 mmHg 94%
    07:00 -4°C° 0 mm 3 mps 749 mmHg 93%
    08:00 -4°C° 0 mm 3 mps 749 mmHg 92%
    09:00 -2°C° 0 mm 3 mps 749 mmHg 90%
    10:00 -2°C° 0 mm 4 mps 749 mmHg 87%
    11:00 -1°C° 0 mm 4 mps 749 mmHg 84%
    12:00 -1°C° 0 mm 4 mps 749 mmHg 84%
    13:00 0°C° 0 mm 3 mps 749 mmHg 83%
    14:00 +1°C° 0 mm 3 mps 749 mmHg 82%
    15:00 0°C° 0 mm 3 mps 749 mmHg 82%
    16:00 -1°C° 0 mm 4 mps 749 mmHg 82%
    17:00 -1°C° 0 mm 4 mps 749 mmHg 82%
    18:00 -2°C° 0 mm 4 mps 749 mmHg 81%
    19:00 -2°C° 0 mm 4 mps 749 mmHg 80%
    20:00 -2°C° 0 mm 4 mps 749 mmHg 79%
    21:00 -3°C° 0 mm 4 mps 749 mmHg 80%
    22:00 -3°C° 0 mm 4 mps 749 mmHg 81%
    23:00 -4°C° 0 mm 4 mps 749 mmHg 82%

    22 November, Thursday

    Time Temperature Precipitation Wind Pressure Humidity
    00:00 -4°C° 0 mm 4 mps 749 mmHg 83%
    01:00 -4°C° 0 mm 4 mps 750 mmHg 83%
    02:00 -5°C° 0 mm 4 mps 750 mmHg 84%
    03:00 -5°C° 0 mm 4 mps 750 mmHg 85%
    04:00 -5°C° 0 mm 4 mps 750 mmHg 86%
    05:00 -5°C° 0 mm 4 mps 750 mmHg 87%
    06:00 -5°C° 0 mm 4 mps 751 mmHg 86%
    07:00 -5°C° 0 mm 4 mps 751 mmHg 86%
    08:00 -5°C° 0 mm 4 mps 751 mmHg 85%
    09:00 -4°C° 0 mm 4 mps 752 mmHg 81%
    10:00 -3°C° 0 mm 4 mps 752 mmHg 77%
    11:00 -2°C° 0 mm 4 mps 752 mmHg 72%
    12:00 -2°C° 0 mm 4 mps 752 mmHg 71%
    13:00 -1°C° 0 mm 4 mps 752 mmHg 70%
    14:00 -1°C° 0 mm 4 mps 752 mmHg 69%
    15:00 -1°C° 0 mm 3 mps 752 mmHg 74%
    16:00 -2°C° 0 mm 3 mps 752 mmHg 79%
    17:00 -4°C° 0 mm 3 mps 753 mmHg 84%
    18:00 -5°C° 0 mm 3 mps 753 mmHg 85%
    19:00 -5°C° 0 mm 3 mps 753 mmHg 87%
    20:00 -5°C° 0 mm 3 mps 753 mmHg 88%
    21:00 -5°C° 0 mm 3 mps 754 mmHg 88%
    22:00 -5°C° 0 mm 3 mps 754 mmHg 89%
    23:00 -5°C° 0 mm 2 mps 754 mmHg 89%
    Show more